Content
SEND FEEDBACK

Daily
Averages
Monthly
Summary
United States of America

ASHTON, IDAHO


Home > North America > United States > Idaho
Elevation: 5223 feet     Latitude: 44 05N     Longitude: 111 27W

WEATHER
 
SELECT A DAY
Number of Records: 167,380;   Date Range: 8/13/98 - 9/30/14
 
SHARE

PRINT THIS DATA

[ ← Previous Day ]
WEATHER ALMANAC - MARCH 29, 2014
[ Next Day → ]
[ °C ]   °F
Weather ElementAverageHighLow
Temperature43.6 °F52 °F (10:53 am)37.4 °F (11:51 pm)
Dewpoint30.1 °F37.9 °F (5:53 pm)21.9 °F (5:53 am)
Humidity62.9 %97 % (11:53 pm)32 % (10:53 am)
Barometer29.89 in30.01 in (1:53 am)29.83 in (3:53 pm)
Wind Speed15.8 mph27.6 mph (2:53 pm)
Wind Gust42.6 mph (2:53 pm)
Weather ElementAverage
Visibility9.9 mi
Wind DirectionSSW (203.7 °)

Weather ElementTotal
Precipitation0.19 in
Heating Degree Days20.3 (Base 65)
Averaged from 27 records on March 29, 2014
WEATHER CONDITIONS BREAKOUT
WIND DIRECTION BREAKOUT
WEATHER BY HOUR - MARCH 29, 2014
[ °C ]   °F
Local TimeTemperatureDewpointHumidityBarometerVisibilityWind DirectionWind SpeedGust SpeedPrecipitationEventsConditions
1:53 AM42.1 °F24.1 °F49 %30.01 in10.0 miSouth (180°)15.0 mph23.0 mphMostly Cloudy
2:53 AM42.1 °F23.0 °F47 %29.98 in10.0 miSouth (180°)12.7 mph24.2 mphMostly Cloudy
3:53 AM43.0 °F24.1 °F47 %29.96 in10.0 miSouth (180°)15.0 mph21.9 mphOvercast
4:53 AM42.1 °F23.0 °F47 %29.93 in10.0 miSouth (190°)12.7 mph21.9 mphScattered Clouds
5:53 AM41.0 °F21.9 °F47 %29.93 in10.0 miSouth (180°)13.8 mph20.7 mphClear
6:53 AM42.1 °F23.0 °F47 %29.92 in10.0 miSouth (190°)11.5 mphOvercast
7:53 AM44.1 °F23.0 °F43 %29.92 in10.0 miSouth (190°)13.8 mph20.7 mphOvercast
8:53 AM45.0 °F26.1 °F48 %29.92 in10.0 miSouth (190°)10.4 mphOvercast
9:53 AM48.9 °F26.1 °F41 %29.90 in10.0 miSSW (200°)12.7 mph23.0 mphOvercast
10:53 AM52.0 °F23.0 °F32 %29.89 in10.0 miSSW (210°)20.7 mph29.9 mphScattered Clouds
11:53 AM50.0 °F23.0 °F35 %29.90 in10.0 miSW (220°)26.5 mph36.8 mphOvercast
12:53 PM48.9 °F28.9 °F46 %29.91 in10.0 miSW (220°)23.0 mph32.2 mph0.00 inOvercast
1:53 PM51.1 °F28.9 °F43 %29.88 in10.0 miSW (230°)25.3 mph36.8 mphMostly Cloudy
2:53 PM50.0 °F28.0 °F43 %29.86 in10.0 miSW (220°)27.6 mph42.6 mph0.00 inRainLight Rain
3:53 PM51.1 °F30.9 °F46 %29.83 in10.0 miSW (230°)24.2 mph35.7 mph0.00 inOvercast
4:53 PM48.0 °F34.0 °F58 %29.85 in10.0 miSW (230°)23.0 mph34.5 mph0.00 inRainLight Rain
5:53 PM44.1 °F37.9 °F79 %29.86 in10.0 miSW (230°)19.6 mph28.8 mph0.00 inRainLight Rain
6:53 PM42.1 °F37.0 °F82 %29.87 in10.0 miSW (220°)16.1 mph26.5 mph0.00 inRainLight Rain
7:53 PM39.9 °F37.9 °F93 %29.86 in9.0 miSSW (200°)13.8 mph0.03 inRainLight Rain
8:53 PM39.0 °F37.0 °F93 %29.86 in10.0 miSouth (190°)15.0 mph21.9 mph0.01 inOvercast
9:26 PM39.0 °F36.0 °F89 %29.86 in10.0 miSSW (200°)11.5 mphOvercast
9:48 PM39.2 °F35.6 °F87 %29.85 in10.0 miSouth (190°)12.7 mphOvercast
9:53 PM39.0 °F36.0 °F89 %29.84 in10.0 miSouth (190°)11.5 mphOvercast
10:30 PM39.0 °F36.0 °F89 %29.87 in8.0 miSSW (210°)12.7 mph20.7 mph0.03 inRainLight Rain
10:53 PM39.0 °F36.0 °F89 %29.83 in10.0 miSSW (210°)10.4 mph0.06 inRainLight Rain
11:51 PM37.4 °F35.6 °F93 %29.84 in10.0 miSSW (210°)8.1 mph0.03 inRainLight Rain
11:53 PM37.9 °F37.0 °F97 %29.83 in10.0 miSSW (210°)8.1 mph0.03 inRainLight Rain
Hourly data recorded from KRXE, located miles away from Ashton, Idaho







STORIES FROM OUR PARTNERS